GFSFLT2_prec_cthk_225.txt.gz
RH
22 21 21 22 23 25 26 28 30 31 33 35 38 40 43 46 45 42 42 42 40 40 40 39 37 35 33 31 37 39 50 56
24 23 22 23 25 27 28 29 31 34 36 37 38 42 45 47 44 42 42 41 44 45 46 46 46 45 44 40 40 44 45 54
27 31 27 28 29 30 31 32 33 35 38 39 42 45 45 47 45 44 46 47 48 49 53 54 55 55 53 49 49 50 57 56
29 32 33 32 34 36 34 34 35 37 38 39 41 42 45 47 46 46 49 50 52 55 57 58 59 61 62 58 56 58 61 55
38 37 35 38 36 38 38 42 40 39 40 41 42 46 49 50 54 53 53 54 54 57 60 60 62 66 65 66 65 66 63 64
46 48 43 39 44 39 37 38 42 43 43 41 44 46 51 53 57 57 59 60 59 60 61 66 66 69 72 74 74 71 67 79
38 45 50 45 41 46 44 36 36 37 41 42 42 46 49 55 61 66 68 68 66 66 66 67 72 73 76 80 80 76 74 83
34 35 41 46 45 46 48 49 42 41 42 42 46 47 49 54 59 65 66 71 71 72 72 75 78 78 79 82 83 80 75 86
36 35 32 39 48 47 45 48 50 47 46 45 49 52 54 56 57 61 63 73 75 74 76 78 78 81 83 80 82 85 85 83
35 35 36 34 38 42 45 47 50 53 50 53 53 56 59 60 60 60 61 64 71 80 81 79 81 85 94 93 84 90 88 90
35 33 32 32 34 37 40 46 48 54 56 57 60 62 64 66 69 68 61 67 74 77 81 84 88 90 93 86 88 89 91 93
35 38 37 38 39 41 46 51 56 54 53 56 57 63 68 70 76 76 72 74 80 78 80 88 89 88 85 88 82 88 89 89
37 38 39 40 42 43 44 49 53 56 61 63 60 63 68 71 79 81 76 76 77 78 78 84 84 96 87 96 87 88 88 86
40 41 42 43 44 46 52 51 51 59 62 65 69 72 73 74 86 83 83 85 83 85 85 87 89 89 90 91 88 96 87 89
40 41 43 43 42 43 43 46 53 53 54 62 68 74 76 71 84 84 87 88 88 85 88 89 87 84 94 91 90 89 85 86
40 38 39 42 43 42 44 45 47 54 55 58 62 66 70 90 84 94 91 83 97 93 93 95 89 88 94 93 93 82 87 83
45 45 46 46 48 46 44 48 46 47 51 56 56 63 72 68 73 85 77 83 84 97 99 84 99 97 98 97 95 89 87 88
48 47 51 48 50 47 48 49 47 46 45 47 49 52 54 59 67 73 82 87 97 92 84 90 98 98 96 98 95 93 89 87
50 50 49 47 45 45 47 45 47 48 48 54 56 56 61 62 61 64 74 82 88 89 89 98 98 98 99 96 98 94 94 94
48 44 42 41 43 46 45 44 46 49 51 67 72 79 78 74 69 69 70 76 82 84 88 95 94 99 95 94 97 98 98 97

GFSFLT2_prec_cthk_228.txt.gz
RH
20 20 19 20 21 21 23 25 26 27 28 29 30 33 35 38 39 40 39 37 37 38 36 36 36 36 38 37 37 41 43 50
25 23 23 22 22 24 26 29 28 28 28 30 32 33 34 38 41 43 43 39 40 41 41 40 40 42 41 42 43 43 51 57
25 27 24 26 25 26 27 29 30 31 31 32 33 35 36 38 40 42 44 42 42 42 43 44 44 46 48 49 49 49 55 63
33 30 27 28 28 30 31 31 32 33 34 35 36 37 38 40 40 43 45 44 44 47 47 48 48 49 52 54 56 55 54 68
50 42 39 34 32 36 36 38 36 36 38 39 40 41 41 41 41 44 43 46 48 50 51 51 53 53 53 55 58 60 60 73
43 46 54 50 45 44 45 42 43 42 42 44 44 44 44 47 47 46 46 47 51 53 55 57 58 61 60 58 61 62 66 77
36 46 50 49 49 52 46 48 47 46 48 50 52 52 51 53 53 55 53 53 56 58 57 58 59 65 65 65 65 64 68 72
34 34 37 43 48 49 56 51 51 51 52 51 56 56 58 61 67 70 69 64 61 66 62 62 65 66 70 70 69 68 71 74
34 35 36 35 39 45 52 57 56 53 51 51 55 56 58 62 71 74 74 72 68 70 68 69 70 68 69 75 73 72 76 77
39 35 32 33 35 41 45 50 49 50 53 52 53 58 62 67 69 72 76 81 79 72 70 68 67 70 72 78 80 78 80 81
36 35 34 34 34 37 40 42 44 46 49 52 54 57 59 65 67 72 74 80 78 77 72 67 65 70 75 80 86 84 83 83
33 33 33 34 35 37 37 39 42 48 53 56 55 56 59 65 70 75 74 78 78 78 80 77 72 72 81 86 88 86 86 85
37 38 37 36 36 36 37 38 38 41 44 50 53 58 56 59 66 73 75 75 77 84 87 83 87 83 89 91 88 89 85 84
38 38 38 37 37 36 35 35 35 36 38 43 47 50 60 60 73 69 73 79 81 80 98 95 92 92 92 95 92 89 88 92
40 38 37 36 35 34 33 34 34 37 35 35 38 42 47 55 74 72 75 83 87 85 85 93 88 91 91 95 93 92 86 92
42 40 38 38 37 37 37 37 37 34 31 29 32 32 34 37 47 62 71 71 97 85 90 95 98 94 98 98 97 93 95 90
44 41 40 40 40 39 37 34 31 26 27 28 30 33 35 38 40 45 58 60 67 86 91 82 90 96 85 99 96 99 95 95
44 44 45 42 38 36 34 33 28 27 30 31 33 37 43 49 49 51 54 65 72 73 72 82 93 91 82 90 89 89 93 97
47 45 40 32 29 25 19 22 27 26 27 30 33 36 47 61 66 67 69 68 69 67 72 83 90 86 84 90 94 98 96 98
42 36 36 38 30 23 21 20 24 24 24 25 29 42 47 51 73 77 80 82 82 82 83 86 83 87 92 98 99 93 96 94

GFSFLT2_prec_cthk_234.txt.gz
RH
24 24 24 24 24 25 26 26 27 28 28 28 30 32 34 34 35 36 35 36 36 33 30 29 28 28 29 29 34 38 40 42
32 32 30 28 27 27 27 28 29 30 29 30 32 34 36 36 36 37 38 39 38 38 34 33 32 33 33 32 35 39 41 44
35 34 32 30 30 30 31 30 30 31 31 31 33 35 37 38 38 39 38 40 41 42 41 37 36 37 36 37 39 44 47 47
40 42 44 45 46 46 41 33 32 33 34 34 36 38 39 42 42 41 41 41 41 42 42 40 37 38 40 41 44 47 52 51
37 39 43 48 51 45 46 47 45 42 41 41 41 41 42 43 44 44 44 44 43 44 44 45 44 44 48 50 52 53 51 51
35 39 42 45 44 46 50 52 52 52 50 50 47 47 45 44 45 47 48 49 50 51 51 53 56 55 54 57 57 58 58 55
36 41 45 48 51 53 54 59 62 60 54 54 51 51 51 52 52 53 54 54 57 61 62 63 61 61 60 61 62 61 63 61
34 34 37 43 49 54 57 59 62 64 57 55 61 62 63 71 75 75 70 73 73 72 73 72 73 72 70 70 69 67 65 64
34 34 35 35 39 44 50 53 58 60 58 55 57 63 63 63 65 67 69 68 69 72 76 75 76 74 74 76 75 73 69 70
37 35 34 34 34 36 41 45 53 55 53 54 54 53 54 57 60 64 69 74 73 70 72 73 74 74 72 74 75 74 74 72
38 35 34 34 34 35 35 36 37 40 44 44 44 45 50 49 49 54 58 64 67 72 75 75 78 78 81 80 79 77 73 75
39 36 35 35 35 35 35 35 35 35 34 33 33 33 33 35 37 40 44 48 55 67 70 70 71 72 79 82 84 83 80 77
39 37 35 36 35 35 34 34 33 32 32 32 32 31 31 31 30 30 31 32 38 44 58 69 71 72 73 76 79 81 83 80
41 38 38 39 38 37 38 37 35 34 33 32 30 29 28 27 26 28 29 31 32 34 39 52 65 72 78 77 75 79 74 82
46 44 45 44 42 40 38 36 33 31 28 25 24 22 20 21 21 20 24 28 32 33 34 37 49 62 86 95 86 71 79 86
51 48 47 45 42 39 34 27 23 18 16 14 12 11 10 12 14 14 20 27 29 34 37 38 39 46 58 69 88 89 98 88
53 52 49 44 39 31 27 20 18 18 18 15 12 10 9 9 10 11 13 25 34 40 44 44 46 49 55 67 80 78 97 85
53 54 50 43 34 26 20 20 21 19 16 12 10 9 9 10 13 16 16 16 26 34 46 52 61 57 55 67 72 81 82 82
54 51 44 36 29 24 24 24 22 19 15 17 24 28 27 25 26 27 26 23 24 29 32 43 67 74 69 71 93 92 89 83
59 55 44 33 27 25 24 23 20 18 29 40 39 37 38 39 39 38 43 43 43 44 40 42 52 71 78 86 87 97 97 97

GFSFLT2_prec_cthk_237.txt.gz
RH
24 24 25 24 25 26 27 28 29 30 31 31 31 33 36 37 37 37 37 37 37 37 35 33 32 30 29 29 30 34 36 37
36 34 33 31 30 30 30 30 31 32 33 33 33 34 36 38 39 38 39 39 38 40 41 39 37 36 34 33 33 35 40 42
36 37 39 38 36 35 37 37 35 35 35 36 36 36 38 38 40 41 41 41 42 43 44 44 42 39 38 37 36 39 44 48
40 43 43 44 45 48 54 54 52 49 44 41 42 40 41 44 45 45 44 43 43 43 43 44 45 44 43 44 44 47 49 51
44 43 42 44 46 50 56 58 59 60 63 61 55 52 47 46 47 49 49 49 48 48 48 48 49 50 52 52 54 54 52 54
43 46 46 46 46 52 58 63 61 66 62 59 57 57 57 57 53 50 50 50 51 53 53 54 54 55 58 63 61 60 58 58
39 41 45 46 47 52 58 56 59 65 69 71 63 69 65 62 60 60 61 60 59 57 57 58 62 65 64 65 67 70 68 66
37 37 39 42 46 50 58 64 66 67 69 68 71 72 67 70 69 68 66 69 68 69 69 71 75 76 76 77 76 76 76 71
40 39 39 38 39 44 52 60 63 65 67 65 70 71 65 61 68 69 68 69 68 69 69 71 72 75 77 79 80 80 78 77
44 44 43 40 39 41 44 44 47 53 55 60 59 58 55 56 53 56 56 60 64 68 69 69 70 73 74 74 74 75 77 77
44 45 43 39 37 36 37 39 39 41 42 42 43 42 41 40 40 42 43 44 47 48 53 62 65 65 68 72 71 72 73 75
43 44 41 37 36 36 35 35 36 36 35 35 34 33 32 32 31 31 31 32 34 36 40 46 53 61 63 66 65 67 71 71
47 47 45 43 41 40 39 39 37 37 37 37 35 34 33 32 31 30 29 28 28 29 30 31 34 42 53 62 66 57 62 67
53 53 52 50 47 46 45 43 41 39 37 35 33 32 28 25 24 24 24 24 23 24 25 29 32 32 37 49 57 66 61 60
56 56 55 56 53 50 46 43 39 33 30 26 23 20 18 17 14 13 13 13 15 21 25 26 31 34 39 44 48 64 72 69
59 56 56 55 53 47 43 40 35 30 26 23 19 16 13 12 12 12 12 13 12 14 18 22 26 32 33 44 50 54 72 68
63 63 59 55 52 48 45 40 33 28 22 18 15 13 14 15 16 15 13 13 14 18 19 21 21 29 38 43 49 55 66 79
63 63 61 59 55 50 45 37 33 26 20 17 19 21 22 21 21 22 22 22 24 25 23 22 25 28 32 41 51 56 58 76
65 65 66 61 54 48 41 35 28 22 18 21 24 26 29 28 27 27 24 24 27 28 29 29 30 31 31 30 35 50 68 66
67 67 62 54 49 43 37 31 24 17 16 21 29 32 31 33 32 28 28 26 24 24 24 25 25 29 29 33 36 45 66 81

GFSFLT2_prec_cthk_240.txt.gz
RH
31 32 33 34 35 34 34 36 37 36 36 37 36 36 36 37 38 39 41 41 40 39 38 37 35 33 31 28 29 32 34 37
33 34 35 36 36 37 37 37 38 40 40 39 39 38 38 38 40 41 42 44 44 44 44 45 42 38 37 33 29 31 35 40
40 40 39 40 39 39 42 44 44 44 46 47 46 44 42 40 42 43 46 46 46 47 46 46 47 45 40 37 34 33 34 41
36 36 38 40 45 48 49 51 52 56 58 57 54 50 49 48 46 47 49 51 50 50 49 50 50 51 51 47 43 42 42 46
37 39 37 39 45 52 56 56 56 60 63 66 71 70 70 64 59 54 53 56 56 57 55 54 54 55 57 57 55 53 51 51
38 39 37 41 44 45 47 50 58 68 70 71 70 64 61 62 67 67 63 61 59 60 61 61 60 61 62 62 65 66 63 57
37 38 36 36 40 44 47 48 53 61 62 60 63 69 71 74 72 76 73 71 72 72 71 72 72 73 74 72 74 77 75 76
38 40 39 39 40 42 44 46 49 51 52 55 63 65 64 65 67 68 71 73 71 71 69 70 72 72 76 77 75 79 82 82
42 42 41 41 41 42 44 49 51 52 52 58 57 56 53 55 54 58 55 56 60 65 65 69 70 71 70 70 70 74 76 80
48 47 45 45 45 44 42 42 45 47 47 48 49 49 48 50 49 48 50 49 49 49 50 52 59 62 63 65 65 68 70 72
48 49 49 47 45 43 41 39 38 38 38 39 39 38 37 36 34 34 34 34 34 35 36 38 41 47 51 53 58 61 61 63
53 53 52 52 51 49 47 43 41 40 38 38 38 37 36 35 33 32 31 31 31 30 30 30 30 32 34 41 49 54 57 58
56 57 56 58 56 53 51 50 48 46 46 43 40 38 36 32 29 28 27 27 27 27 26 26 26 26 27 26 26 31 41 52
59 60 62 60 60 57 55 53 49 46 45 42 38 35 31 26 22 20 18 17 15 14 15 17 20 23 27 29 27 26 27 30
59 62 63 64 63 60 59 55 51 47 44 40 38 35 30 25 22 18 16 15 14 14 13 14 20 18 19 22 29 32 32 28
62 64 66 65 68 61 58 57 55 49 44 43 40 37 33 28 26 24 22 19 16 14 13 16 20 21 19 19 24 28 36 31
71 73 79 74 68 60 58 57 55 52 46 41 38 35 32 30 29 29 27 25 22 19 18 19 20 20 20 22 20 20 19 27
85 81 79 77 74 71 69 62 54 49 43 37 34 32 32 32 32 31 28 26 25 24 25 24 23 23 22 22 22 23 19 22
79 85 81 74 71 67 62 56 49 43 39 31 30 32 33 31 31 29 27 25 23 22 21 20 19 19 19 20 21 21 23 25
84 78 79 76 74 68 58 50 44 39 34 29 31 31 34 33 29 26 23 22 22 21 21 21 20 19 19 19 19 20 22 28

GFSFLT2_prec_cthk_246.txt.gz
RH
35 36 35 34 34 34 34 34 35 35 34 34 34 33 33 33 33 33 34 36 38 38 38 37 35 34 34 34 33 32 34 43
40 40 39 39 40 39 38 37 37 37 38 39 40 41 42 42 41 40 37 35 37 38 39 40 40 40 39 38 37 36 34 41
41 46 47 45 43 42 42 42 42 43 44 46 48 48 50 52 54 51 48 43 40 41 41 42 42 43 43 41 40 40 42 43
38 40 44 46 48 46 47 48 51 53 54 54 55 56 58 57 60 62 59 57 59 54 53 50 48 49 51 48 46 49 52 50
44 44 45 46 47 50 50 49 47 48 53 58 59 61 61 63 67 67 66 67 59 57 59 61 65 64 63 61 60 58 55 55
49 51 49 50 50 52 55 53 53 52 53 55 57 59 61 69 70 68 67 62 64 67 67 64 68 69 69 68 68 69 67 61
50 51 55 55 55 57 57 59 64 65 66 66 66 69 65 64 65 63 61 61 61 62 64 66 66 67 68 68 65 63 64 70
54 53 55 58 59 62 64 63 62 63 63 65 67 69 69 66 66 62 60 57 54 56 54 56 57 58 61 68 69 66 66 65
57 57 56 59 59 61 63 64 64 63 65 66 61 62 66 64 62 61 56 52 51 52 52 50 51 52 51 56 57 56 58 60
62 57 57 60 63 66 67 68 68 70 65 60 58 55 54 51 50 47 46 45 46 45 44 43 43 45 46 47 46 48 50 52
61 60 59 59 59 58 58 59 57 55 54 52 46 43 42 41 40 39 39 39 38 38 39 39 39 37 35 36 38 39 41 43
65 60 58 56 56 56 55 54 51 57 54 52 50 47 45 41 39 39 39 38 36 37 34 34 36 35 32 31 31 31 32 33
69 69 68 65 61 57 54 55 59 63 59 60 53 51 48 44 43 44 43 41 39 38 35 37 38 35 32 26 29 25 23 23
65 63 63 66 69 72 71 66 59 54 54 54 55 56 58 55 54 50 45 41 42 41 40 36 33 32 30 32 29 31 31 34
63 64 65 65 65 64 63 65 68 71 72 70 65 64 61 59 61 57 54 50 47 43 41 36 36 34 35 37 34 35 40 29
56 60 64 71 75 80 82 83 82 79 79 75 72 72 68 68 65 57 54 51 47 43 42 42 40 38 39 43 42 39 35 31
51 54 56 62 76 82 88 92 95 94 93 89 84 73 68 60 54 50 48 49 47 43 40 37 36 35 36 40 40 38 35 34
52 54 61 70 74 78 83 90 93 90 81 72 70 70 67 62 54 51 50 47 43 41 38 36 35 36 35 32 32 30 31 32
53 56 62 65 65 71 85 89 94 90 76 65 58 54 53 52 50 48 45 44 45 41 38 36 34 34 35 32 29 27 25 28
59 62 66 69 73 81 84 90 89 81 72 65 60 55 55 54 50 46 44 41 38 40 39 37 35 30 28 28 26 24 23 22

GFSFLT2_prec_cthk_249.txt.gz
RH
32 32 31 31 32 33 34 35 35 36 37 37 37 38 38 37 37 38 38 36 35 36 37 37 37 37 36 34 34 32 31 45
40 39 35 35 35 35 36 37 38 39 40 41 42 43 44 45 46 47 47 46 44 40 39 40 40 41 41 40 38 37 36 40
41 46 46 43 44 41 42 42 43 44 45 46 48 52 55 57 57 57 58 58 56 53 47 45 45 44 46 46 45 42 44 44
39 45 45 45 48 47 48 49 50 52 52 53 56 60 63 67 66 66 67 69 70 67 64 62 57 56 56 55 54 52 52 52
48 48 49 51 50 48 49 51 52 54 55 54 57 59 63 66 64 65 70 73 72 73 73 65 62 64 66 68 71 69 64 61
54 55 53 53 54 53 57 56 56 56 56 57 60 63 63 64 64 62 68 82 77 71 72 74 80 76 73 83 79 78 74 74
56 58 59 61 62 63 65 63 64 64 63 65 66 68 70 72 75 78 71 69 69 66 66 66 63 62 64 69 72 75 80 78
61 60 63 63 65 66 71 70 70 71 71 72 72 71 68 68 68 70 70 69 71 65 60 57 55 52 53 54 53 57 66 77
65 65 66 66 67 66 65 68 65 66 68 68 67 67 68 69 68 65 64 64 60 57 54 54 52 52 51 50 47 46 49 55
66 69 69 66 64 63 64 65 65 66 66 65 62 62 62 60 58 56 54 49 43 41 40 40 41 42 41 43 43 43 40 41
69 70 68 68 65 65 63 62 61 60 58 55 53 51 48 49 49 46 43 40 39 37 38 40 41 41 40 39 39 39 39 39
71 71 70 68 65 63 63 63 62 58 55 54 53 53 54 54 49 48 46 45 43 42 41 40 39 39 40 39 39 36 35 31
64 66 66 66 69 72 74 71 67 64 65 63 63 62 64 58 59 59 56 58 55 52 52 50 48 46 45 47 43 39 36 34
57 58 58 59 63 65 66 67 70 72 75 75 73 70 67 62 62 60 59 59 55 60 62 59 58 53 54 49 44 40 43 41
50 51 53 54 53 55 58 65 72 79 80 82 82 80 79 77 73 68 65 65 67 63 63 63 59 52 48 48 48 47 50 47
45 47 48 50 53 57 64 69 72 77 82 86 85 86 83 84 82 79 79 77 66 63 55 54 58 57 55 55 53 49 47 42
48 49 50 49 54 60 63 68 76 80 87 86 88 80 77 77 77 79 76 73 70 67 67 63 57 55 54 56 54 52 48 48
48 50 52 52 57 61 64 71 76 81 84 83 80 75 67 64 63 57 55 59 63 61 57 55 56 53 53 49 49 49 46 47
52 54 56 59 60 61 65 72 78 82 81 78 70 68 65 65 59 60 58 57 55 52 50 49 48 47 48 48 47 47 45 42
55 58 60 64 65 69 76 79 83 85 89 80 70 69 72 75 73 70 69 61 54 50 49 47 46 46 44 41 39 41 40 39

GFSFLT2_prec_cthk_255.txt.gz
RH
23 24 25 26 27 27 28 29 29 30 30 30 31 32 33 35 36 37 38 39 40 42 44 45 44 40 41 42 40 38 39 46
33 29 28 28 28 31 32 33 34 34 34 35 36 37 39 40 42 43 44 46 48 50 54 55 54 52 47 47 47 46 45 46
39 35 36 36 36 35 37 39 39 40 42 42 43 44 44 45 48 51 54 58 63 65 66 64 62 65 63 59 53 53 53 52
59 50 49 46 46 45 47 48 48 49 48 48 50 52 53 56 58 65 70 75 77 76 69 71 69 72 73 72 66 61 57 59
68 70 64 60 56 55 55 57 58 60 59 57 60 61 63 61 64 68 68 77 79 80 78 81 79 81 84 81 78 74 76 77
62 65 71 68 63 62 66 67 70 73 69 67 69 70 75 75 73 72 70 75 80 85 83 77 77 79 83 79 77 86 83 84
57 64 72 67 64 64 69 76 77 78 80 77 71 80 86 81 79 79 78 80 84 86 84 82 85 85 83 77 71 68 75 72
57 67 71 72 70 70 68 77 80 79 85 78 73 74 81 82 78 81 80 81 81 78 78 75 72 73 74 74 71 65 60 58
64 69 70 74 75 69 69 68 69 72 74 74 74 72 67 63 61 60 60 61 62 63 68 70 71 64 55 53 57 52 48 45
63 62 59 60 66 70 69 68 67 72 75 71 69 68 65 62 55 52 54 54 56 57 53 54 54 50 44 39 38 38 40 43
52 51 53 59 65 67 67 69 69 65 64 65 64 66 69 69 71 72 73 70 63 61 55 51 50 51 54 46 42 40 37 38
43 43 46 49 51 50 50 49 50 52 55 57 61 64 69 73 74 74 77 80 80 79 75 68 63 59 64 61 54 51 48 46
42 44 45 44 46 48 49 49 46 46 49 56 59 61 64 64 64 64 68 68 70 75 82 83 82 75 67 66 70 68 56 54
45 45 47 48 49 49 46 41 42 43 48 52 55 58 59 60 61 59 55 56 60 65 70 71 74 81 81 77 74 75 75 70
46 49 47 43 42 42 40 41 44 46 50 54 55 55 57 60 62 59 55 51 50 54 64 65 69 73 76 75 74 69 65 65
51 51 47 45 44 43 43 44 50 53 54 54 55 57 59 63 65 64 56 52 50 50 52 55 61 63 63 75 80 82 80 73
54 51 49 50 50 49 49 53 53 54 53 56 57 59 64 67 67 62 63 65 64 61 58 59 61 70 74 74 65 68 74 76
55 51 50 51 51 48 48 47 51 54 58 61 63 66 71 73 67 65 63 67 67 66 67 66 66 66 63 61 63 69 71 72
47 45 43 44 49 52 56 60 64 68 69 71 73 75 78 80 75 67 66 62 59 60 61 61 60 58 57 59 62 63 62 60
43 47 51 54 58 61 65 68 73 76 76 77 79 77 76 77 72 57 50 46 43 42 41 41 44 48 50 47 47 49 54 59

GFSFLT2_prec_cthk_261.txt.gz
RH
37 35 30 28 31 32 33 33 33 35 36 36 37 36 35 36 38 39 41 40 39 40 40 43 47 49 51 48 43 38 41 43
51 48 48 38 38 39 40 41 44 45 44 46 46 46 46 44 44 46 45 49 49 46 47 49 55 58 60 61 59 55 48 50
60 61 65 50 48 49 54 57 59 61 60 59 57 56 56 58 61 63 60 62 66 63 65 65 69 72 76 75 71 69 65 61
60 57 61 58 58 61 70 73 75 73 68 68 70 67 63 62 64 69 77 79 79 78 80 81 87 93 93 89 84 79 73 70
62 57 53 64 64 66 73 79 82 73 69 76 82 73 68 68 71 74 77 76 77 82 84 84 88 89 92 90 90 90 83 85
59 54 52 63 64 65 69 81 78 73 69 74 80 81 79 74 72 71 82 84 86 86 84 87 90 89 87 85 87 83 78 80
57 55 61 66 70 72 79 81 83 80 80 78 78 76 72 70 68 68 76 76 72 71 75 82 87 88 90 88 90 85 82 79
58 60 69 68 72 71 77 81 80 79 73 71 72 69 64 63 62 66 68 73 74 74 75 70 63 60 64 72 76 76 76 80
57 62 68 70 75 72 68 64 63 61 59 59 61 62 58 53 54 55 58 65 66 66 66 70 74 72 64 57 56 58 58 58
65 67 64 62 60 60 60 58 57 55 53 54 54 53 49 49 48 49 52 55 55 56 59 64 66 67 72 73 68 62 58 57
57 50 47 49 51 52 50 48 47 46 45 47 49 50 50 47 47 48 48 47 46 45 45 47 49 54 59 62 69 73 69 64
47 46 49 52 52 50 47 48 46 47 48 49 48 48 49 48 47 45 43 42 41 41 38 35 36 38 43 47 51 60 71 73
52 54 55 56 51 50 50 48 46 47 49 48 48 50 50 49 48 46 46 45 42 39 38 37 34 33 34 39 42 49 58 64
59 57 55 51 50 49 48 47 43 46 50 51 52 50 47 47 48 49 47 48 48 47 45 44 43 39 38 39 45 50 53 57
58 58 56 54 53 47 43 41 42 45 46 46 48 48 49 52 54 57 59 58 56 54 52 50 49 50 49 50 50 53 51 57
63 62 60 53 46 42 42 39 43 46 49 51 53 55 57 59 60 61 61 60 58 53 50 47 47 47 47 48 50 52 53 53
64 62 55 48 42 43 45 49 51 53 57 60 61 62 63 62 59 51 35 28 22 21 21 21 23 24 24 26 27 31 39 47
59 54 50 46 48 50 51 54 55 57 59 59 57 52 43 34 29 26 25 22 20 20 21 23 24 26 27 28 31 32 31 31
41 44 45 48 51 53 54 58 61 61 63 60 45 31 29 28 25 22 19 19 18 19 19 21 24 28 29 29 30 31 35 37
46 46 48 51 53 53 55 60 64 64 56 40 33 34 26 23 19 18 17 16 17 18 19 20 22 24 23 24 27 23 33 38

GFSFLT2_prec_cthk_267.txt.gz
RH
55 58 56 55 60 48 47 39 37 40 43 45 47 50 52 53 53 53 54 55 56 57 58 59 59 57 56 55 53 51 49 46
58 66 65 63 59 62 66 59 49 48 51 52 56 59 59 64 62 63 64 63 62 63 61 61 63 66 68 69 69 68 66 64
60 65 66 65 66 72 79 69 63 61 64 64 68 66 68 70 72 65 61 60 60 62 63 66 71 76 80 79 82 84 89 88
64 66 69 69 77 84 84 74 68 67 66 66 66 66 65 70 69 68 67 68 68 67 67 66 70 78 83 85 84 86 86 85
67 73 76 78 82 85 83 78 72 67 64 64 66 65 67 69 75 72 75 69 67 65 62 61 66 73 79 82 86 87 89 90
75 85 83 75 78 78 76 73 71 67 64 62 69 69 68 67 67 64 63 59 57 54 53 56 57 59 63 65 66 73 72 83
84 86 80 79 81 78 80 78 76 73 67 65 65 64 64 64 64 63 59 54 48 45 43 44 48 53 58 65 66 62 62 66
82 81 82 81 82 76 75 68 64 64 63 60 58 60 60 57 56 53 49 46 46 45 44 43 43 44 46 46 51 60 63 61
76 80 81 78 73 65 58 56 57 59 54 50 48 47 46 46 47 46 46 45 44 42 41 39 40 39 37 36 38 41 45 51
76 79 79 74 65 50 49 50 53 52 47 45 45 46 46 45 44 44 43 41 40 38 36 34 34 33 33 31 31 32 35 37
67 69 62 54 51 52 53 54 53 50 49 44 39 38 38 37 37 37 36 35 36 36 35 35 37 39 39 36 35 34 34 37
60 60 57 57 56 55 54 52 50 47 43 36 36 36 37 38 39 40 40 41 42 41 40 37 36 37 38 40 39 38 39 42
65 63 60 58 57 55 53 51 51 47 41 38 40 41 42 42 43 44 44 44 40 37 33 28 25 20 20 15 15 15 24 28
70 62 59 57 58 55 52 50 47 42 40 41 42 43 44 45 44 42 39 31 23 16 12 12 15 13 15 13 12 13 10 10
64 61 61 59 55 50 44 39 40 40 41 42 44 44 45 40 33 28 19 13 10 8 7 7 10 14 12 17 21 20 14 17
65 60 56 53 48 42 39 41 41 40 42 42 43 44 39 30 24 17 12 9 8 7 8 8 9 13 13 16 17 18 23 24
58 57 52 44 39 40 41 40 39 40 42 43 39 32 28 25 19 11 7 6 6 6 7 7 7 8 11 15 14 15 18 22
48 45 42 43 42 41 40 41 42 45 43 38 34 28 28 17 10 6 6 7 7 7 7 7 7 6 6 7 13 16 16 15
48 45 42 41 40 41 41 42 43 44 42 33 29 25 14 11 9 7 7 7 7 7 7 7 6 6 6 6 6 8 11 13
50 47 42 41 43 42 43 43 42 39 34 27 24 12 10 9 10 8 7 7 7 7 7 6 6 6 6 6 6 6 6 7

GFSFLT2_prec_cthk_270.txt.gz
RH
59 65 68 64 56 57 60 60 57 55 46 47 47 48 50 51 53 54 55 57 59 63 68 62 62 61 61 61 62 62 63 66
64 67 71 70 66 59 66 73 76 68 55 56 57 58 59 60 62 65 66 68 69 65 63 64 62 63 68 69 72 77 81 82
69 70 76 72 68 69 76 84 85 78 66 68 66 64 64 62 61 63 66 69 67 66 66 68 69 69 68 73 76 79 80 80
68 68 68 77 78 80 85 88 89 82 75 68 64 63 67 68 67 68 68 68 72 72 73 70 73 69 63 65 70 77 81 82
63 67 77 82 77 83 85 77 76 74 74 67 66 65 64 69 65 69 68 70 66 59 58 56 55 53 51 51 53 57 65 72
76 81 81 82 76 85 83 81 78 71 70 68 66 64 65 62 59 59 63 61 58 55 52 48 44 42 44 46 48 50 53 58
81 86 86 85 83 84 83 84 79 71 71 68 63 61 59 58 59 56 53 51 48 47 47 48 46 43 41 40 41 43 46 49
77 80 81 84 85 83 78 69 64 64 62 60 54 53 52 53 50 49 48 46 45 45 45 43 42 40 38 34 33 32 33 37
75 76 80 81 77 75 67 58 53 54 57 53 47 45 42 39 38 37 36 35 34 35 35 37 36 35 34 33 36 33 32 33
74 73 73 74 72 63 52 51 51 53 53 48 45 39 32 32 31 31 31 32 32 34 34 35 36 37 37 38 40 41 38 38
65 64 62 58 56 55 51 53 53 52 50 48 41 34 32 32 33 33 34 36 34 34 34 32 32 30 28 31 33 39 40 41
59 63 63 59 59 57 54 56 55 53 49 41 33 32 34 35 36 34 37 34 32 30 28 29 28 28 26 24 23 22 21 21
63 64 61 58 58 54 54 58 50 39 33 33 34 34 34 34 36 33 28 30 29 28 23 19 19 15 13 14 17 17 25 14
62 60 58 58 57 55 55 45 36 33 34 35 34 34 34 32 32 32 23 22 22 19 14 13 12 13 12 15 15 16 24 15
63 62 59 56 55 49 39 35 37 38 36 34 35 33 30 26 23 15 13 13 12 9 7 10 11 12 14 17 19 20 19 27
57 58 54 50 45 39 41 41 40 37 37 37 37 28 23 20 13 9 10 10 9 7 6 6 7 12 12 15 15 19 22 21
50 46 41 39 40 39 41 42 41 39 38 37 34 29 22 15 8 8 10 11 10 7 6 6 11 13 12 12 12 14 15 18
46 45 42 40 38 38 40 40 40 40 42 40 32 25 17 10 9 10 10 9 9 7 6 7 8 11 12 12 11 12 16 16
48 49 46 42 41 40 40 39 40 43 43 35 30 22 11 10 10 11 10 9 10 9 8 9 10 10 13 12 12 11 12 13
50 52 53 47 43 41 40 42 44 44 40 32 26 13 11 10 11 10 9 10 11 10 11 11 10 12 13 13 13 13 14 14

GFSFLT2_prec_cthk_276.txt.gz
RH
58 63 67 71 71 69 68 69 72 74 78 74 68 67 63 67 67 66 64 62 63 63 62 63 62 61 62 65 66 67 68 70
73 73 77 77 79 80 81 73 77 80 81 79 82 74 74 75 73 66 64 65 69 67 67 68 66 64 63 61 59 59 69 72
85 88 84 82 84 80 76 79 82 85 83 88 81 80 73 68 69 66 63 63 62 63 63 66 66 67 63 58 48 44 45 52
74 80 77 80 79 80 79 82 86 84 84 85 81 73 70 70 67 64 61 61 63 61 58 57 56 57 53 47 44 41 39 39
66 71 75 81 81 87 87 86 87 85 80 76 74 70 68 68 63 59 56 52 52 52 48 45 44 42 40 38 36 37 40 38
65 70 73 76 83 90 88 90 86 82 75 73 70 69 66 59 52 47 43 40 40 40 41 40 38 35 34 34 34 34 36 39
69 71 72 80 79 89 93 92 87 78 66 62 59 56 53 48 45 41 36 33 34 33 33 32 32 31 30 30 32 33 33 34
70 71 74 77 81 85 90 86 77 64 56 50 51 50 50 47 43 34 33 33 32 31 31 31 31 29 31 32 35 36 36 39
75 71 72 76 75 78 80 73 60 56 51 49 48 45 42 37 30 30 30 29 27 27 27 26 24 21 21 26 29 32 33 36
70 64 65 65 68 69 64 62 60 57 50 46 41 35 28 28 27 25 25 21 15 15 19 19 20 16 18 22 18 25 27 26
59 52 52 56 60 58 59 63 58 53 47 38 32 28 30 28 21 21 22 16 13 14 16 17 19 15 13 15 16 24 29 24
52 48 48 48 48 49 51 50 49 46 37 30 28 26 24 26 22 19 20 15 12 10 11 13 15 11 8 13 19 28 24 30
50 44 47 49 47 48 48 47 46 37 30 30 28 26 21 18 16 13 17 14 9 8 8 8 11 12 9 12 20 26 25 27
49 45 46 49 48 47 42 37 33 32 32 30 28 24 20 16 12 11 11 10 9 9 9 9 10 12 12 11 11 20 30 26
46 47 45 42 36 33 33 36 37 36 34 29 28 26 20 15 12 11 12 11 10 9 9 9 10 12 13 13 15 16 9 17
47 45 39 34 33 32 35 38 39 37 34 31 29 24 20 15 13 13 12 11 10 10 10 10 9 12 11 13 14 16 19 14
51 44 40 38 36 37 38 39 36 34 33 32 30 27 21 16 14 14 13 12 11 11 12 12 11 13 12 13 16 15 16 18
47 44 44 46 43 42 43 40 39 35 35 36 33 29 24 18 15 15 14 13 12 12 13 15 13 13 12 13 16 16 16 17
49 47 49 49 49 47 46 47 46 38 35 34 35 31 26 18 17 16 15 14 13 12 16 16 14 14 14 13 16 18 17 17
54 53 55 58 57 57 55 53 51 42 36 33 34 31 23 19 18 17 16 15 14 13 18 17 16 16 17 17 16 18 18 18

GFSFLT2_prec_cthk_279.txt.gz
RH
61 62 67 66 65 63 65 70 70 74 72 72 72 75 70 72 70 67 62 60 57 57 59 60 59 61 61 59 62 66 63 60
66 72 75 70 70 69 72 70 73 76 76 73 70 79 74 69 68 67 63 60 59 59 60 60 61 63 65 64 61 59 56 47
73 76 77 75 74 73 72 73 76 77 78 71 75 76 72 70 68 65 61 57 58 57 56 55 54 53 58 59 55 51 45 42
71 70 70 72 74 78 76 76 76 81 80 76 71 70 67 67 66 62 56 50 49 47 45 43 41 39 39 38 38 38 38 38
66 64 67 70 69 72 78 82 81 80 79 74 71 68 65 64 58 48 45 41 34 33 34 35 35 34 33 32 32 31 33 35
66 66 67 69 72 75 79 82 83 82 76 69 65 61 54 49 46 42 39 31 28 29 28 29 29 28 27 28 28 29 30 31
68 69 71 71 74 77 79 88 85 78 71 60 52 48 44 43 39 33 27 24 25 26 26 26 27 27 27 27 31 32 32 33
69 71 69 72 76 79 81 79 78 69 58 50 45 43 40 33 26 24 24 24 23 22 23 23 24 25 26 26 30 31 32 32
68 65 62 69 75 76 78 74 61 57 53 48 43 39 32 24 23 22 21 18 16 14 15 17 15 17 18 18 24 29 28 28
63 55 48 50 58 64 62 61 57 52 48 42 36 29 24 23 18 18 16 13 12 11 11 11 10 10 12 13 22 26 28 27
51 47 43 46 48 49 49 49 50 48 40 34 26 23 21 18 15 14 13 11 10 9 9 8 8 7 7 13 21 25 29 31
45 42 39 41 44 43 43 42 41 38 34 25 24 21 18 14 14 13 12 11 10 10 9 9 8 8 14 18 22 26 27 26
43 41 41 38 40 41 41 38 36 30 26 25 23 20 16 13 12 12 12 11 11 11 10 9 9 8 12 18 22 25 28 28
43 41 40 40 38 35 33 30 29 27 26 25 24 21 17 12 12 13 13 12 12 11 10 9 9 9 8 8 17 24 25 26
46 42 42 36 31 28 31 32 31 29 28 27 25 21 17 12 13 14 14 13 13 12 11 11 11 12 11 10 12 12 12 15
45 42 39 33 32 30 31 33 34 31 29 30 28 24 20 14 14 15 14 14 14 13 12 12 11 11 12 14 15 14 14 13
46 44 37 37 38 36 36 36 39 40 39 32 28 27 24 18 15 16 16 16 16 15 14 13 12 12 12 13 14 14 15 15
47 44 41 43 45 43 43 44 45 46 44 37 29 29 28 22 16 18 18 17 17 16 16 15 14 14 14 14 15 17 18 18
48 46 46 46 48 53 52 49 49 48 46 46 37 32 31 25 18 18 19 18 18 18 18 17 16 15 16 16 17 16 18 18
51 50 50 50 51 55 57 52 48 50 53 49 47 36 32 22 19 19 19 20 20 19 19 19 18 18 19 20 20 18 18 18